Погода в Курае

Россия / Республика Алтай     50°13′58″N   87°55′48″E
темп.,
°C
ветер,
м/с
пор.,
м/с
влажн.,
%
обл.,
%
осадки,
мм/ч
давл.,
гПа
погр.,
м
5 марта, пт
пт501:00−21юв55762 0.0 103141
04:00−21юв446898 0.0 103029
07:00−21юв556298 0.0 102947
10:00−15юв566590 0.0 1024150
13:00−11юв457186 0.0 1021216
16:00−7зюз1185100 0.2 1021236
19:00−14сз228583 0.7 102821
22:00−18ю22860 0.0 103420
6 марта, сб
сб601:00−19ююв33760 0.0 103721
04:00−20ююв33730 0.0 103622
07:00−21юв347012 0.0 103626
10:00−16юв447375 0.0 1033106
13:00−11юв446573 0.0 1026212
16:00−9юв34681 0.0 1022196
19:00−16юв34663 0.0 102424
22:00−18юв33580 0.0 102623
7 марта, вс
вс701:00−18юв34570 0.0 102723
04:00−18юв34520 0.0 102624
07:00−19юв34531 0.0 102725
10:00−13юв336733 0.0 102587
13:00−8юв336437 0.0 1021205
16:00−6юв237061 0.0 1019175
19:00−13юв237031 0.0 102321
22:00−15юв23693 0.0 102621
8 марта, пн
пн801:00−16юв336711 0.0 102723
04:00−17юв346649 0.0 102724
07:00−17юв346257 0.0 102725
10:00−12юв446769 0.0 1023100
13:00−6юв346282 0.0 1018188
16:00−5юв347260 0.0 1015179
19:00−10юв336929 0.0 101723
22:00−12юв337250 0.0 102123
9 марта, вт
вт901:00−12ююв227874 0.0 102421
04:00−13ююв2280100 0.0 102522
07:00−15юв237988 0.0 102721
10:00−11юв23819 0.0 102789
13:00−6ююв23714 0.0 1024467
16:00−5юв22690 0.0 1022557
19:00−11юв33803 0.0 102422
22:00−15юв338014 0.0 102621